Regional Weather Roundup
Issued by NWS Sioux Falls, SD

Home | Current Version | Previous Version | Text Only | Print | Product List | Glossary Off
Versions: 1 2 3 4 5 6 7 8 9 10 11 12 13 14 15 16 17 18 19 20 21 22 23 24 25 26 27 28 29 30 31 32 33 34 35 36 37 38 39 40 41 42 43 44 45 46 47 48 49 50

000
ASUS43 KFSD 261902
RWRFSD

WEATHER ROUNDUP FOR SE SOUTH DAKOTA/SW MINNESOTA/NW IOWA
NATIONAL WEATHER SERVICE SIOUX FALLS SD
200 PM CDT TUE JUL 26 2016

NOTE: "FAIR" INDICATES FEW OR NO CLOUDS BELOW 12,000 FEET WITH NO
SIGNIFICANT WEATHER AND OR OBSTRUCTIONS TO VISIBILITY.


SDZ038>040-050-052>070-262000-
SOUTHEAST SOUTH DAKOTA

CITY           SKY/WX    TMP DP  RH WIND       PRES   REMARKS
BROOKINGS      SUNNY     85  66  53 S12       30.02F
CHAMBERLAIN    CLOUDY    75  72  90 NE3       29.96F
HURON          PTSUNNY   85  64  49 S12       29.95F THUNDER
MADISON        FAIR      82  63  51 SW15G21   30.04S
MITCHELL       SUNNY     89  61  38 S14G22    29.98F
SIOUX FALLS    MOSUNNY   85  61  44 SW15G21   30.02F
WINNER         FAIR      91  62  37 S6        29.98F
YANKTON        SUNNY     88  63  42 S13       30.00F
$$

MNZ071-072-080-081-089-090-097-098-262000-
SOUTHWEST MINNESOTA

CITY           SKY/WX    TMP DP  RH WIND       PRES   REMARKS
FAIRMONT       SUNNY     82  61  47 S8        30.06S
JACKSON        SUNNY     84  61  45 S8        30.07F
LUVERNE        SUNNY     82  64  54 S10       30.05F
MARSHALL       SUNNY     87  64  46 SW6       30.02F
MONTEVIDEO     MOSUNNY   88  72  58 SW9       30.01S
REDWOOD FALLS  SUNNY     86  64  47 S10       30.01F
TRACY          SUNNY     86  67  52 SW7       30.04S
WINDOM         SUNNY     84  63  48 S9        30.05F
WORTHINGTON    SUNNY     83  66  56 SW9       30.06F
$$

IAZ001>003-012>014-020>022-031-032-NEZ013-014-SDZ071-262000-
NORTHWEST IOWA

CITY           SKY/WX    TMP DP  RH WIND       PRES   REMARKS
CHEROKEE       SUNNY     85  65  51 S10       30.05F
DENISON        SUNNY     82  64  54 S7G14     30.05F
ESTHERVILLE    SUNNY     83  67  58 S8        30.06F
LE MARS        SUNNY     86  68  54 S13       30.04F
SHELDON        SUNNY     82  66  57 MISG      30.05F
SIOUX CITY     SUNNY     88  67  49 S12       30.04F
SPENCER        SUNNY     85  65  51 S12       30.06F
STORM LAKE       N/A     82  66  57 S9        30.08F
$$

ABBREVIATIONS USED IN REMARKS
   TC - TEMPERATURE IN CELSIUS
  WCI - WIND CHILL INDEX
   HX - HEAT INDEX
  VSB - VISIBILITY





USA.gov is the U.S. government's official web portal to all federal, state and local government web resources and services.